Wind_Speed
27 30 25 21 25 27 27 28 29 29 33 28 31 38 38 27 30 33 71 85 80 79 72 68 70 68 69 69 70 83 25 38 46 43 45 44 38 33 31 28 24 28 29 29
27 27 25 25 30 29 29 31 33 29 29 32 40 41 36 34 37 40 35 48 74 78 70 69 72 71 70 72 71 69 54 48 43 44 42 40 35 32 29 27 29 30 32 35
27 22 27 28 31 32 34 33 34 36 31 33 36 43 39 35 35 31 43 46 51 67 71 70 72 73 70 72 65 63 60 53 46 48 46 39 34 33 30 30 31 34 36 39
25 23 28 31 33 32 38 31 37 37 33 37 34 43 39 37 32 34 30 47 55 50 67 69 73 73 72 69 63 65 62 60 54 49 47 46 40 35 35 37 36 36 39 42
20 28 34 38 33 35 36 30 35 34 36 36 36 41 32 37 39 31 39 34 63 64 69 76 73 71 74 67 59 61 64 61 56 56 53 50 41 42 42 40 37 39 40 45
30 31 32 28 25 24 25 29 32 33 36 41 31 36 36 31 31 28 31 36 46 70 79 78 73 72 73 64 57 61 64 62 66 63 56 48 45 44 42 40 41 38 37 30
29 23 25 28 32 25 26 36 30 41 37 37 32 35 37 16 16 21 32 36 26 55 74 72 72 73 71 65 60 59 64 69 62 52 56 47 47 46 42 39 33 32 28 27
32 29 21 31 33 32 32 35 41 40 36 34 30 39 30 15 15 21 32 26 28 46 72 66 69 69 70 63 55 59 64 73 62 61 54 53 51 45 37 34 32 28 24 20
30 31 31 32 34 35 32 32 42 40 39 44 38 37 30 20 25 17 33 43 28 32 64 65 65 65 68 62 59 59 64 67 59 46 49 50 48 40 36 34 25 23 19 16
30 35 29 28 28 26 25 20 23 27 33 35 35 32 23 22 24 30 40 34 33 37 59 64 62 63 70 60 61 61 65 66 58 53 49 50 39 37 33 33 22 21 20 16
36 35 23 24 25 21 18 16 23 27 27 32 34 24 29 34 38 39 33 28 33 46 56 62 62 66 67 61 62 62 61 66 68 64 59 48 46 38 32 22 22 21 19 16
29 27 23 22 19 14 16 18 20 31 24 25 31 27 29 32 35 43 37 38 26 48 67 63 64 66 66 65 63 66 62 68 70 63 53 50 42 38 24 22 22 21 19 15
25 24 29 9 11 15 16 21 20 26 27 29 28 24 27 32 29 42 35 30 32 46 65 62 64 69 65 65 64 72 87 77 68 56 52 46 47 21 24 22 23 21 17 16
22 22 23 14 12 18 15 12 15 18 23 23 24 22 18 24 29 33 40 29 49 56 52 64 70 71 73 74 60 47 67 56 57 52 51 47 24 25 23 25 24 20 18 17
20 22 17 13 14 16 17 17 12 18 24 29 22 19 18 24 32 35 37 34 57 47 47 64 73 75 77 67 48 61 54 58 51 54 50 31 22 22 24 25 22 20 18 16
22 20 13 10 13 20 34 28 29 34 35 34 34 27 32 28 31 31 36 51 58 47 52 71 71 75 68 43 61 47 49 44 49 36 26 19 20 23 25 25 21 18 16 15
21 20 16 10 17 18 25 32 26 32 43 41 42 32 36 32 31 41 42 61 66 51 57 66 66 66 62 67 47 49 48 47 38 31 24 22 23 24 23 22 19 17 16 16
20 22 21 19 17 19 31 29 40 35 22 22 25 22 24 26 34 48 55 68 61 56 63 65 59 56 48 50 63 48 46 32 28 24 24 23 23 23 22 21 16 15 16 17
18 19 19 21 20 27 33 34 27 11 13 3 4 6 21 34 40 52 66 65 57 50 65 61 57 58 37 50 49 39 29 25 25 24 21 20 23 22 19 16 16 16 17 19
18 20 21 22 23 31 30 33 15 8 6 6 7 13 34 45 50 64 63 60 55 60 49 52 49 41 49 45 37 31 26 24 22 21 20 20 19 18 16 15 14 16 18 20
19 19 18 16 24 26 30 6 2 6 7 7 11 43 16 44 58 45 54 51 54 56 48 48 46 41 33 35 30 27 25 24 22 20 19 20 18 15 14 15 16 18 19 21
20 16 13 10 20 26 24 3 7 6 18 11 16 26 34 53 52 46 52 50 52 49 47 49 44 39 34 29 26 25 23 20 21 21 20 16 15 15 16 17 18 20 20 17
19 14 7 13 19 28 21 5 5 27 25 25 37 46 37 33 44 47 45 44 48 49 51 51 46 31 30 28 26 21 18 19 19 16 16 16 16 17 17 16 18 17 18 20
18 9 7 11 16 26 20 7 12 16 24 28 43 47 43 45 48 50 42 40 38 37 30 27 30 28 25 24 22 21 20 18 16 17 17 18 18 16 16 17 18 19 22 24
10 7 5 9 19 24 19 13 10 22 28 43 49 47 47 44 40 35 42 43 39 38 34 33 30 28 26 23 21 20 19 18 18 18 18 19 18 18 20 20 20 22 24 22
4 6 6 11 16 20 12 22 22 21 36 48 50 47 48 45 41 38 41 42 41 41 37 32 28 25 23 22 21 20 19 19 18 16 17 20 20 23 23 23 22 24 24 23
Wind_Direction
265 272 279 286 282 286 284 278 276 264 243 267 268 269 266 249 260 252 234 229 227 223 223 220 220 217 220 223 227 231 189 207 225 227 232 238 246 251 256 257 261 266 265 266
265 274 295 296 294 297 294 282 275 279 262 248 251 254 260 260 246 248 225 228 228 222 218 219 220 217 216 221 224 226 231 227 230 230 236 240 245 247 247 255 256 262 268 275
271 292 287 284 284 292 291 289 283 278 269 253 250 258 258 261 254 252 242 208 213 223 215 216 217 217 215 220 219 221 226 227 229 229 234 239 240 245 247 251 261 267 276 280
279 291 289 286 288 288 288 282 273 275 271 272 252 262 254 249 251 259 238 228 198 197 215 212 215 215 215 217 216 214 219 228 227 232 235 236 236 247 247 253 264 272 278 284
293 295 295 291 293 280 287 278 273 274 274 275 263 254 275 257 255 256 239 241 207 199 204 207 209 213 217 214 215 214 217 226 230 226 230 235 233 239 247 257 268 273 283 288
297 298 295 299 291 285 290 281 275 273 269 266 274 265 273 269 273 256 233 238 220 217 214 203 207 209 214 210 211 211 216 221 227 223 222 227 232 239 245 254 266 273 284 288
302 305 302 303 297 292 282 261 284 271 258 270 271 275 271 273 265 226 244 225 226 217 212 209 206 207 210 208 208 205 214 221 222 208 219 223 230 234 244 254 265 276 283 284
309 308 293 293 287 284 281 266 265 269 266 274 255 267 262 241 260 243 219 215 227 221 210 205 207 207 208 207 206 207 214 221 228 209 217 224 231 239 234 258 269 278 273 267
304 297 302 304 292 287 283 268 267 271 264 273 263 266 263 242 244 219 210 229 188 224 208 202 203 206 208 204 205 210 213 224 224 231 224 229 236 240 251 262 266 265 258 243
306 304 309 302 297 295 283 266 262 265 268 270 268 263 256 252 254 224 207 231 199 195 202 198 197 200 206 201 205 210 212 220 225 228 229 234 242 248 251 261 259 253 237 238
304 301 322 314 304 299 270 280 270 265 259 272 272 255 245 249 252 226 213 204 226 188 193 190 193 197 202 199 205 211 212 215 219 224 228 233 239 241 252 245 245 236 228 238
312 311 321 318 311 298 289 292 291 270 262 274 265 258 254 239 230 249 214 212 204 193 189 183 194 193 196 200 205 212 212 211 212 216 219 226 230 240 238 234 230 222 231 242
309 318 326 316 302 306 295 284 285 272 269 275 269 269 256 243 233 231 223 205 194 187 184 187 191 192 192 198 205 209 194 195 203 207 217 223 232 230 227 227 218 224 233 244
305 324 315 311 305 297 314 298 281 282 268 280 263 265 238 233 233 226 219 208 172 176 184 187 191 192 194 199 197 202 179 177 192 203 215 224 212 219 225 218 218 224 234 244
306 319 308 302 321 309 299 298 295 294 306 276 271 263 228 226 233 213 203 182 174 177 184 188 189 194 199 200 173 162 158 183 184 203 214 214 209 223 218 216 219 226 237 250
315 321 317 321 327 327 326 300 268 285 300 283 279 268 258 253 225 208 185 186 178 178 180 187 190 195 188 165 187 172 172 183 200 198 198 207 218 214 212 215 221 232 245 258
319 328 321 309 310 332 330 320 310 302 299 281 269 261 251 252 227 216 196 181 179 173 183 185 193 201 199 205 171 167 168 179 187 195 202 207 212 208 213 220 228 239 251 262
325 325 321 337 326 340 332 316 322 322 311 297 273 258 254 232 205 174 177 175 179 180 177 184 195 198 185 183 194 186 165 167 185 199 200 197 198 203 210 223 232 241 250 260
328 320 325 335 339 342 340 325 315 318 349 323 304 239 186 174 156 167 164 172 173 178 182 184 186 191 173 177 163 142 158 179 196 195 195 197 196 202 210 216 227 237 254 267
326 332 332 343 355 352 348 340 315 334 79 45 202 165 145 142 155 157 164 172 178 180 176 186 180 173 181 161 136 149 174 190 189 185 187 190 193 198 206 220 237 252 264 275
335 338 346 5 10 356 356 344 13 201 346 120 168 149 145 145 151 154 163 168 173 177 174 179 186 193 160 132 146 165 178 182 180 178 185 191 196 202 218 235 247 260 269 285
341 347 359 357 20 6 9 280 212 240 112 116 123 118 128 146 159 156 163 163 170 174 180 182 183 174 140 152 170 181 185 184 183 186 190 194 204 217 231 244 255 269 282 291
352 351 5 5 16 8 15 162 151 98 137 96 129 133 132 150 162 170 159 160 168 179 169 173 166 142 156 170 179 180 184 186 190 192 196 208 219 231 239 254 274 274 281 290
350 355 8 24 17 10 27 171 113 107 133 150 131 141 137 145 153 155 160 158 171 160 159 142 145 164 178 181 186 192 195 197 200 203 210 218 229 239 254 264 263 275 291 291
350 14 331 6 13 7 18 168 143 166 147 146 145 145 146 153 158 159 145 156 158 161 165 167 172 178 188 195 196 199 201 203 209 216 225 233 238 250 256 261 267 278 285 285
4 13 22 26 21 4 24 165 144 126 153 148 152 153 154 163 167 167 164 166 170 173 176 177 182 190 202 204 204 199 204 214 226 240 249 254 259 260 259 264 270 277 281 285
Height
5683 5682 5682 5682 5681 5679 5677 5674 5673 5674 5678 5676 5674 5672 5672 5673 5675 5675 5680 5692 5707 5719 5736 5747 5755 5766 5778 5785 5789 5790 5766 5793 5811 5822 5832 5841 5846 5851 5856 5861 5864 5867 5869 5870
5678 5677 5675 5674 5672 5671 5670 5667 5664 5665 5665 5666 5665 5660 5664 5665 5662 5667 5666 5678 5689 5705 5724 5733 5742 5753 5768 5776 5781 5789 5796 5807 5806 5816 5827 5837 5842 5847 5852 5857 5858 5861 5864 5865
5671 5673 5669 5668 5666 5664 5661 5659 5657 5656 5655 5653 5654 5649 5653 5654 5655 5655 5661 5662 5678 5692 5708 5720 5729 5743 5759 5765 5780 5785 5790 5796 5803 5813 5824 5831 5837 5842 5848 5849 5853 5856 5859 5860
5667 5666 5663 5660 5659 5657 5652 5654 5649 5645 5645 5642 5645 5636 5639 5643 5646 5646 5647 5658 5664 5673 5693 5708 5719 5732 5746 5759 5772 5782 5791 5794 5804 5811 5818 5826 5833 5838 5842 5844 5849 5853 5854 5855
5663 5658 5655 5652 5652 5647 5644 5642 5639 5637 5635 5634 5632 5630 5633 5636 5635 5638 5636 5642 5654 5660 5674 5692 5708 5726 5733 5754 5768 5779 5788 5792 5799 5805 5813 5820 5827 5832 5836 5841 5845 5848 5849 5848
5653 5652 5647 5643 5639 5637 5636 5632 5628 5627 5626 5619 5625 5624 5620 5627 5626 5626 5631 5636 5645 5652 5668 5683 5701 5717 5726 5748 5760 5768 5779 5787 5791 5796 5805 5814 5821 5826 5832 5836 5840 5842 5844 5843
5645 5643 5638 5633 5629 5630 5626 5622 5619 5615 5612 5611 5619 5614 5609 5618 5618 5617 5623 5629 5632 5644 5661 5682 5694 5703 5722 5735 5747 5763 5772 5775 5781 5784 5798 5808 5815 5820 5827 5831 5834 5838 5838 5840
5633 5632 5632 5628 5624 5620 5619 5615 5611 5607 5605 5604 5607 5602 5606 5609 5613 5615 5616 5621 5628 5636 5653 5672 5686 5700 5714 5729 5745 5757 5762 5763 5760 5777 5794 5802 5810 5815 5820 5825 5830 5832 5833 5834
5627 5624 5622 5618 5611 5610 5609 5605 5604 5598 5597 5594 5598 5596 5598 5600 5596 5607 5613 5612 5616 5630 5646 5663 5680 5695 5708 5723 5738 5749 5756 5757 5770 5776 5787 5795 5803 5808 5812 5820 5824 5827 5828 5829
5621 5611 5615 5609 5603 5601 5596 5596 5594 5591 5589 5586 5586 5589 5593 5595 5597 5592 5600 5609 5613 5622 5639 5655 5674 5688 5698 5719 5730 5741 5753 5758 5765 5772 5781 5789 5796 5802 5811 5815 5818 5821 5824 5826
5614 5608 5608 5599 5595 5593 5590 5589 5587 5585 5583 5580 5577 5582 5579 5586 5585 5591 5593 5600 5609 5615 5627 5652 5668 5679 5694 5712 5722 5734 5743 5752 5759 5768 5778 5785 5790 5798 5806 5809 5813 5817 5820 5822
5607 5601 5598 5594 5589 5586 5584 5582 5580 5576 5579 5573 5570 5569 5572 5576 5578 5577 5588 5595 5600 5616 5633 5647 5660 5676 5689 5705 5717 5725 5722 5734 5746 5762 5773 5777 5785 5795 5801 5804 5808 5811 5815 5817
5602 5596 5592 5590 5587 5583 5578 5576 5574 5571 5568 5567 5564 5563 5566 5566 5572 5575 5582 5591 5598 5614 5634 5640 5656 5671 5687 5698 5704 5702 5671 5704 5742 5756 5767 5776 5782 5790 5796 5800 5803 5806 5811 5813
5596 5594 5588 5585 5582 5576 5572 5568 5566 5563 5559 5558 5555 5554 5557 5559 5564 5569 5579 5592 5599 5609 5617 5632 5647 5664 5670 5683 5702 5663 5657 5709 5733 5750 5765 5774 5776 5785 5791 5796 5799 5802 5807 5808
5594 5590 5584 5581 5576 5573 5569 5565 5561 5557 5554 5550 5553 5550 5549 5550 5550 5559 5572 5587 5591 5598 5612 5625 5645 5657 5669 5683 5687 5673 5685 5721 5729 5749 5762 5770 5771 5780 5787 5791 5794 5798 5801 5802
5591 5585 5581 5578 5573 5569 5562 5559 5554 5550 5547 5542 5539 5541 5538 5542 5546 5554 5564 5571 5582 5593 5610 5625 5642 5658 5678 5666 5687 5697 5705 5721 5734 5746 5760 5764 5771 5777 5782 5786 5790 5794 5795 5796
5587 5582 5579 5576 5570 5565 5561 5556 5550 5543 5533 5525 5522 5526 5525 5529 5535 5547 5560 5573 5590 5605 5617 5627 5640 5654 5670 5691 5694 5702 5704 5720 5736 5747 5755 5762 5767 5772 5777 5782 5785 5788 5790 5791
5585 5579 5575 5570 5566 5564 5558 5548 5540 5531 5523 5514 5510 5513 5513 5517 5523 5535 5552 5571 5590 5605 5617 5630 5643 5653 5667 5679 5690 5700 5708 5725 5735 5745 5752 5759 5763 5768 5771 5777 5780 5784 5786 5786
5584 5579 5573 5568 5566 5560 5552 5547 5532 5527 5522 5516 5514 5511 5513 5517 5524 5539 5556 5578 5593 5606 5619 5633 5647 5659 5671 5680 5677 5694 5712 5724 5735 5743 5750 5755 5758 5763 5768 5774 5777 5779 5780 5780
5583 5578 5574 5571 5565 5558 5550 5542 5534 5529 5525 5519 5516 5519 5523 5522 5534 5547 5568 5589 5598 5612 5625 5637 5651 5658 5671 5674 5683 5701 5716 5727 5734 5740 5746 5751 5756 5760 5765 5768 5771 5773 5773 5773
5582 5578 5574 5571 5565 5560 5552 5545 5539 5536 5537 5529 5528 5529 5522 5542 5558 5562 5584 5595 5604 5619 5633 5641 5652 5662 5663 5674 5693 5707 5718 5727 5733 5738 5744 5747 5752 5757 5760 5763 5764 5766 5767 5766
5582 5579 5575 5571 5566 5559 5554 5550 5547 5543 5542 5542 5542 5546 5554 5562 5575 5581 5592 5603 5613 5624 5634 5646 5657 5661 5667 5687 5701 5711 5719 5725 5729 5735 5739 5743 5748 5751 5754 5757 5759 5761 5761 5760
5581 5578 5574 5571 5567 5562 5557 5555 5551 5550 5551 5551 5551 5560 5564 5573 5585 5595 5603 5612 5624 5634 5640 5650 5654 5661 5679 5692 5702 5709 5714 5718 5723 5729 5735 5739 5742 5746 5749 5751 5753 5754 5754 5754
5582 5578 5576 5572 5569 5564 5561 5561 5562 5560 5560 5566 5569 5573 5578 5589 5598 5605 5612 5621 5630 5638 5644 5651 5663 5676 5687 5696 5703 5709 5713 5718 5723 5727 5732 5735 5739 5741 5743 5745 5745 5747 5747 5747
5583 5580 5577 5574 5572 5567 5565 5566 5566 5566 5567 5570 5577 5584 5589 5598 5605 5612 5621 5631 5640 5649 5657 5665 5673 5682 5690 5697 5702 5706 5711 5716 5721 5723 5726 5729 5732 5736 5738 5739 5741 5741 5742 5742
5584 5582 5579 5577 5573 5570 5566 5568 5571 5572 5577 5581 5585 5593 5600 5608 5613 5623 5633 5640 5648 5656 5663 5669 5676 5683 5690 5696 5700 5704 5708 5711 5715 5719 5724 5727 5729 5732 5735 5735 5736 5737 5738 5738